Time,TemperatureF,DewpointF,PressureIn,WindDirection,WindDirectionDegrees,WindSpeedMPH,WindSpeedGustMPH,Humidity,HourlyPrecipIn,Conditions,Clouds,dailyrainin,SoftwareType,DateUTC
2013-04-28 00:13:00,50.9,34.0,30.32,SSE,152,0.0,-999.0,52,-99.99,,,0.00,weatherlink.com 1.10,2013-04-28 04:13:00,
2013-04-28 00:28:00,50.7,33.0,30.32,SSE,151,0.0,-999.0,52,-99.99,,,0.00,weatherlink.com 1.10,2013-04-28 04:28:00,
2013-04-28 00:43:00,50.2,33.0,30.32,SSE,151,0.0,-999.0,53,-99.99,,,0.00,weatherlink.com 1.10,2013-04-28 04:43:00,
2013-04-28 00:58:00,49.8,34.0,30.32,SSE,151,0.0,-999.0,55,-99.99,,,0.00,weatherlink.com 1.10,2013-04-28 04:58:00,
2013-04-28 01:13:00,49.2,33.0,30.31,SSE,152,0.0,-999.0,55,-99.99,,,0.00,weatherlink.com 1.10,2013-04-28 05:13:00,
2013-04-28 01:28:00,49.2,33.0,30.31,SSE,152,0.0,-999.0,54,-99.99,,,0.00,weatherlink.com 1.10,2013-04-28 05:28:00,
2013-04-28 01:43:00,49.2,33.0,30.31,SSE,152,0.0,-999.0,54,-99.99,,,0.00,weatherlink.com 1.10,2013-04-28 05:43:00,
2013-04-28 01:58:00,48.6,35.0,30.31,SSE,152,0.0,-999.0,59,-99.99,,,0.00,weatherlink.com 1.10,2013-04-28 05:58:00,
2013-04-28 02:13:00,47.6,35.0,30.30,SSE,151,0.0,-999.0,63,-99.99,,,0.00,weatherlink.com 1.10,2013-04-28 06:13:00,
2013-04-28 02:28:00,47.4,36.0,30.30,SSE,152,0.0,-999.0,66,-99.99,,,0.00,weatherlink.com 1.10,2013-04-28 06:28:00,
2013-04-28 02:43:00,46.8,37.0,30.30,SSE,152,0.0,-999.0,68,-99.99,,,0.00,weatherlink.com 1.10,2013-04-28 06:43:00,
2013-04-28 02:58:00,45.8,37.0,30.29,SSE,152,0.0,-999.0,71,-99.99,,,0.00,weatherlink.com 1.10,2013-04-28 06:58:00,
2013-04-28 03:13:00,45.8,37.0,30.29,SSE,151,0.0,-999.0,71,-99.99,,,0.00,weatherlink.com 1.10,2013-04-28 07:13:00,
2013-04-28 03:28:00,46.2,37.0,30.29,SSE,151,0.0,-999.0,71,-99.99,,,0.00,weatherlink.com 1.10,2013-04-28 07:28:00,
2013-04-28 03:43:00,45.6,37.0,30.29,SSE,152,0.0,-999.0,73,-99.99,,,0.00,weatherlink.com 1.10,2013-04-28 07:43:00,
2013-04-28 03:58:00,45.1,37.0,30.29,SSE,152,0.0,-999.0,73,-99.99,,,0.00,weatherlink.com 1.10,2013-04-28 07:58:00,
2013-04-28 04:13:00,44.5,37.0,30.29,SSE,152,1.0,-999.0,76,-99.99,,,0.00,weatherlink.com 1.10,2013-04-28 08:13:00,
2013-04-28 04:28:00,44.4,38.0,30.29,SSE,152,0.0,-999.0,79,-99.99,,,0.00,weatherlink.com 1.10,2013-04-28 08:28:00,
2013-04-28 04:43:00,44.4,39.0,30.28,SSE,151,0.0,-999.0,81,-99.99,,,0.00,weatherlink.com 1.10,2013-04-28 08:43:00,
2013-04-28 04:58:00,43.4,38.0,30.28,SSE,151,0.0,-999.0,82,-99.99,,,0.00,weatherlink.com 1.10,2013-04-28 08:58:00,
2013-04-28 05:13:00,42.4,37.0,30.28,SSE,152,0.0,-999.0,82,-99.99,,,0.00,weatherlink.com 1.10,2013-04-28 09:13:00,
2013-04-28 05:28:00,41.8,37.0,30.29,SSE,152,0.0,-999.0,84,-99.99,,,0.00,weatherlink.com 1.10,2013-04-28 09:28:00,
2013-04-28 05:43:00,42.2,38.0,30.28,SSE,152,0.0,-999.0,86,-99.99,,,0.00,weatherlink.com 1.10,2013-04-28 09:43:00,
2013-04-28 05:58:00,42.0,38.0,30.28,SSE,152,0.0,-999.0,87,-99.99,,,0.00,weatherlink.com 1.10,2013-04-28 09:58:00,
2013-04-28 06:13:00,41.7,38.0,30.29,SSE,151,0.0,-999.0,86,-99.99,,,0.00,weatherlink.com 1.10,2013-04-28 10:13:00,
2013-04-28 06:28:00,40.8,37.0,30.30,SSE,152,0.0,-999.0,85,-99.99,,,0.00,weatherlink.com 1.10,2013-04-28 10:28:00,
2013-04-28 06:43:00,40.6,36.0,30.30,SSE,152,0.0,-999.0,83,-99.99,,,0.00,weatherlink.com 1.10,2013-04-28 10:43:00,
2013-04-28 06:58:00,41.2,36.0,30.30,SSE,152,0.0,-999.0,82,-99.99,,,0.00,weatherlink.com 1.10,2013-04-28 10:58:00,
2013-04-28 07:13:00,42.0,37.0,30.31,SSE,152,0.0,-999.0,81,-99.99,,,0.00,weatherlink.com 1.10,2013-04-28 11:13:00,
2013-04-28 07:28:00,43.0,37.0,30.31,SSE,151,0.0,-999.0,80,-99.99,,,0.00,weatherlink.com 1.10,2013-04-28 11:28:00,
2013-04-28 07:43:00,44.1,38.0,30.31,SSE,152,0.0,-999.0,79,-99.99,,,0.00,weatherlink.com 1.10,2013-04-28 11:43:00,
2013-04-28 07:58:00,45.5,39.0,30.32,SSE,152,0.0,-999.0,77,-99.99,,,0.00,weatherlink.com 1.10,2013-04-28 11:58:00,
2013-04-28 08:13:00,47.2,40.0,30.31,SSE,152,0.0,-999.0,75,-99.99,,,0.00,weatherlink.com 1.10,2013-04-28 12:13:00,
2013-04-28 08:28:00,48.7,40.0,30.31,SSE,152,0.0,-999.0,71,-99.99,,,0.00,weatherlink.com 1.10,2013-04-28 12:28:00,
2013-04-28 08:43:00,50.4,40.0,30.31,SSE,151,0.0,-999.0,68,-99.99,,,0.00,weatherlink.com 1.10,2013-04-28 12:43:00,
2013-04-28 08:58:00,51.5,40.0,30.31,SSE,151,0.0,-999.0,66,-99.99,,,0.00,weatherlink.com 1.10,2013-04-28 12:58:00,
2013-04-28 09:13:00,53.4,38.0,30.32,SSE,152,0.0,-999.0,56,-99.99,,,0.00,weatherlink.com 1.10,2013-04-28 13:13:00,
2013-04-28 09:28:00,55.0,37.0,30.32,South,187,0.0,-999.0,51,-99.99,,,0.00,weatherlink.com 1.10,2013-04-28 13:28:00,
2013-04-28 09:43:00,56.8,34.0,30.31,South,185,0.0,-999.0,42,-99.99,,,0.00,weatherlink.com 1.10,2013-04-28 13:43:00,
2013-04-28 09:58:00,59.0,36.0,30.30,South,187,0.0,-999.0,43,-99.99,,,0.00,weatherlink.com 1.10,2013-04-28 13:58:00,
2013-04-28 10:13:00,61.3,40.0,30.31,ESE,110,1.0,-999.0,46,-99.99,,,0.00,weatherlink.com 1.10,2013-04-28 14:13:00,
2013-04-28 10:28:00,61.5,39.0,30.31,SSW,194,0.0,-999.0,44,-99.99,,,0.00,weatherlink.com 1.10,2013-04-28 14:28:00,
2013-04-28 10:43:00,61.9,36.0,30.30,South,189,0.0,-999.0,39,-99.99,,,0.00,weatherlink.com 1.10,2013-04-28 14:43:00,
2013-04-28 10:58:00,63.2,38.0,30.30,South,187,0.0,-999.0,39,-99.99,,,0.00,weatherlink.com 1.10,2013-04-28 14:58:00,
2013-04-28 11:13:00,64.1,37.0,30.29,SSE,164,4.0,-999.0,37,-99.99,,,0.00,weatherlink.com 1.10,2013-04-28 15:13:00,
2013-04-28 11:28:00,65.4,40.0,30.29,SW,222,1.0,-999.0,39,-99.99,,,0.00,weatherlink.com 1.10,2013-04-28 15:28:00,
2013-04-28 11:43:00,65.9,37.0,30.30,SW,216,0.0,-999.0,35,-99.99,,,0.00,weatherlink.com 1.10,2013-04-28 15:43:00,
2013-04-28 11:58:00,66.7,39.0,30.29,South,181,0.0,-999.0,37,-99.99,,,0.00,weatherlink.com 1.10,2013-04-28 15:58:00,
2013-04-28 12:13:00,66.7,37.0,30.28,South,170,2.0,-999.0,34,-99.99,,,0.00,weatherlink.com 1.10,2013-04-28 16:13:00,
2013-04-28 12:28:00,67.8,38.0,30.28,South,176,0.0,-999.0,33,-99.99,,,0.00,weatherlink.com 1.10,2013-04-28 16:28:00,
2013-04-28 12:43:00,67.1,39.0,30.27,SW,218,0.0,-999.0,36,-99.99,,,0.00,weatherlink.com 1.10,2013-04-28 16:43:00,
2013-04-28 12:58:00,67.8,37.0,30.27,SSW,212,6.0,-999.0,32,-99.99,,,0.00,weatherlink.com 1.10,2013-04-28 16:58:00,
2013-04-28 13:13:00,67.7,37.0,30.27,SW,214,0.0,-999.0,33,-99.99,,,0.00,weatherlink.com 1.10,2013-04-28 17:13:00,
2013-04-28 13:28:00,68.3,39.0,30.26,SSW,206,0.0,-999.0,34,-99.99,,,0.00,weatherlink.com 1.10,2013-04-28 17:28:00,
2013-04-28 13:43:00,67.5,40.0,30.26,SW,222,1.0,-999.0,37,-99.99,,,0.00,weatherlink.com 1.10,2013-04-28 17:43:00,
2013-04-28 13:58:00,67.5,41.0,30.26,SSE,147,1.0,-999.0,38,-99.99,,,0.00,weatherlink.com 1.10,2013-04-28 17:58:00,
2013-04-28 14:13:00,68.0,40.0,30.25,SW,235,0.0,-999.0,36,-99.99,,,0.00,weatherlink.com 1.10,2013-04-28 18:13:00,
2013-04-28 14:28:00,67.2,41.0,30.25,South,185,2.0,-999.0,38,-99.99,,,0.00,weatherlink.com 1.10,2013-04-28 18:28:00,
2013-04-28 14:43:00,66.7,40.0,30.25,SSW,202,0.0,-999.0,38,-99.99,,,0.00,weatherlink.com 1.10,2013-04-28 18:43:00,
2013-04-28 14:58:00,66.8,40.0,30.24,SW,228,8.0,-999.0,38,-99.99,,,0.00,weatherlink.com 1.10,2013-04-28 18:58:00,
2013-04-28 15:13:00,66.7,41.0,30.23,SSW,209,2.0,-999.0,39,-99.99,,,0.00,weatherlink.com 1.10,2013-04-28 19:13:00,
2013-04-28 15:28:00,66.4,39.0,30.23,SSW,208,3.0,-999.0,37,-99.99,,,0.00,weatherlink.com 1.10,2013-04-28 19:28:00,
2013-04-28 15:43:00,66.4,39.0,30.23,WSW,248,0.0,-999.0,37,-99.99,,,0.00,weatherlink.com 1.10,2013-04-28 19:43:00,
2013-04-28 15:58:00,65.8,39.0,30.22,SW,218,1.0,-999.0,37,-99.99,,,0.00,weatherlink.com 1.10,2013-04-28 19:58:00,
2013-04-28 16:13:00,65.1,37.0,30.23,SW,219,5.0,-999.0,36,-99.99,,,0.00,weatherlink.com 1.10,2013-04-28 20:13:00,
2013-04-28 16:28:00,63.8,36.0,30.23,WSW,257,7.0,-999.0,35,-99.99,,,0.00,weatherlink.com 1.10,2013-04-28 20:28:00,
2013-04-28 16:43:00,64.4,36.0,30.22,SSW,202,1.0,-999.0,35,-99.99,,,0.00,weatherlink.com 1.10,2013-04-28 20:43:00,
2013-04-28 16:58:00,63.8,34.0,30.23,WSW,251,4.0,-999.0,33,-99.99,,,0.00,weatherlink.com 1.10,2013-04-28 20:58:00,
2013-04-28 17:13:00,62.9,34.0,30.23,SSW,209,0.0,-999.0,34,-99.99,,,0.00,weatherlink.com 1.10,2013-04-28 21:13:00,
2013-04-28 17:28:00,62.6,33.0,30.23,SW,218,2.0,-999.0,33,-99.99,,,0.00,weatherlink.com 1.10,2013-04-28 21:28:00,
2013-04-28 17:43:00,61.8,34.0,30.23,SW,224,0.0,-999.0,36,-99.99,,,0.00,weatherlink.com 1.10,2013-04-28 21:43:00,
2013-04-28 17:58:00,61.1,32.0,30.22,SW,221,3.0,-999.0,34,-99.99,,,0.00,weatherlink.com 1.10,2013-04-28 21:58:00,
2013-04-28 18:13:00,60.7,31.0,30.22,SW,228,5.0,-999.0,33,-99.99,,,0.00,weatherlink.com 1.10,2013-04-28 22:13:00,
2013-04-28 18:28:00,60.0,29.0,30.22,SSW,206,2.0,-999.0,31,-99.99,,,0.00,weatherlink.com 1.10,2013-04-28 22:28:00,
2013-04-28 18:43:00,59.0,29.0,30.22,SSW,209,0.0,-999.0,32,-99.99,,,0.00,weatherlink.com 1.10,2013-04-28 22:43:00,
2013-04-28 18:58:00,58.4,29.0,30.21,SW,229,0.0,-999.0,33,-99.99,,,0.00,weatherlink.com 1.10,2013-04-28 22:58:00,
2013-04-28 19:13:00,57.5,28.0,30.21,SW,236,0.0,-999.0,33,-99.99,,,0.00,weatherlink.com 1.10,2013-04-28 23:13:00,
2013-04-28 19:28:00,56.4,29.0,30.22,SW,221,0.0,-999.0,35,-99.99,,,0.00,weatherlink.com 1.10,2013-04-28 23:28:00,
2013-04-28 19:43:00,55.6,29.0,30.22,South,181,4.0,-999.0,37,-99.99,,,0.00,weatherlink.com 1.10,2013-04-28 23:43:00,
2013-04-28 19:58:00,54.9,29.0,30.22,SSW,194,0.0,-999.0,37,-99.99,,,0.00,weatherlink.com 1.10,2013-04-28 23:58:00,
2013-04-28 20:13:00,54.3,29.0,30.22,SSW,199,0.0,-999.0,38,-99.99,,,0.00,weatherlink.com 1.10,2013-04-29 00:13:00,
2013-04-28 20:28:00,53.8,29.0,30.23,SSW,199,0.0,-999.0,39,-99.99,,,0.00,weatherlink.com 1.10,2013-04-29 00:28:00,
2013-04-28 20:43:00,53.4,29.0,30.23,SW,216,0.0,-999.0,39,-99.99,,,0.00,weatherlink.com 1.10,2013-04-29 00:43:00,
2013-04-28 20:58:00,53.1,29.0,30.23,SW,221,0.0,-999.0,40,-99.99,,,0.00,weatherlink.com 1.10,2013-04-29 00:58:00,
2013-04-28 21:13:00,52.6,29.0,30.23,SW,221,0.0,-999.0,41,-99.99,,,0.00,weatherlink.com 1.10,2013-04-29 01:13:00,
2013-04-28 21:28:00,52.1,30.0,30.24,SW,221,0.0,-999.0,43,-99.99,,,0.00,weatherlink.com 1.10,2013-04-29 01:28:00,
2013-04-28 21:43:00,51.9,30.0,30.24,SW,221,0.0,-999.0,44,-99.99,,,0.00,weatherlink.com 1.10,2013-04-29 01:43:00,
2013-04-28 21:58:00,51.5,31.0,30.24,SW,216,0.0,-999.0,45,-99.99,,,0.00,weatherlink.com 1.10,2013-04-29 01:58:00,
2013-04-28 22:13:00,51.2,30.0,30.24,SW,220,0.0,-999.0,45,-99.99,,,0.00,weatherlink.com 1.10,2013-04-29 02:13:00,
2013-04-28 22:28:00,50.8,30.0,30.24,SW,220,0.0,-999.0,45,-99.99,,,0.00,weatherlink.com 1.10,2013-04-29 02:28:00,
2013-04-28 22:43:00,50.5,31.0,30.24,SW,220,0.0,-999.0,47,-99.99,,,0.00,weatherlink.com 1.10,2013-04-29 02:43:00,
2013-04-28 22:58:00,50.3,29.0,30.24,SW,220,0.0,-999.0,44,-99.99,,,0.00,weatherlink.com 1.10,2013-04-29 02:58:00,
2013-04-28 23:13:00,50.0,29.0,30.25,SW,221,0.0,-999.0,45,-99.99,,,0.00,weatherlink.com 1.10,2013-04-29 03:13:00,
2013-04-28 23:28:00,49.7,30.0,30.24,SW,222,0.0,-999.0,47,-99.99,,,0.00,weatherlink.com 1.10,2013-04-29 03:28:00,
2013-04-28 23:43:00,49.4,31.0,30.25,SW,222,0.0,-999.0,50,-99.99,,,0.00,weatherlink.com 1.10,2013-04-29 03:43:00,
2013-04-28 23:58:00,49.1,32.0,30.25,SW,222,0.0,-999.0,53,-99.99,,,0.00,weatherlink.com 1.10,2013-04-29 03:58:00,